Location: Gersthofen
(48.4243°N, 10.8727°E)
Time: 17:02:27
(UTC+00:00)

Daily predictions for brighter satellites

Satellite Brightness Start Highest point End
(mag) Time Altitude Azimuth Time Altitude Azimuth Time Altitude Azimuth
ERS-1 Rocket 3.2 19:53:19 10° SSE 19:58:15 60° ENE 20:03:13 10° N
Cosmos 1763 Rocket 3.8 19:53:35 10° NNW 19:58:50 68° WSW 20:03:58 10° S
Cosmos 1553 Rocket 4.1 19:54:30 10° N 20:00:42 86° E 20:06:57 10° S
S3M 4.4 19:57:05 10° N 20:03:20 52° ENE 20:09:28 10° SSE
Spot 2 Rocket 3.9 20:00:45 10° SE 20:05:40 53° ENE 20:10:36 10° N
Meteor 1-15 Rocket 4.5 20:04:55 10° N 20:10:24 55° ENE 20:15:52 10° SSE
Cosmos 1441 Rocket 3.0 20:10:01 10° N 20:13:38 83° E 20:17:14 10° SSE
Okean-O 3.7 20:09:35 10° S 20:13:48 44° W 20:18:03 10° NNW
Cosmos 2360 Rocket 3.1 20:09:52 10° NNW 20:15:11 39° NE 20:20:27 10° ESE
ATLAS 2AS CENTAUR R/B 3.3 20:10:12 10° NW 20:16:54 49° NE 20:23:20 10° ESE
Cosmos 2266 Rocket 4.2 20:11:54 10° SSE 20:18:02 57° E 20:24:18 10° NNE
Cosmos 1733 Rocket 4.2 20:14:52 10° N 20:18:44 29° ENE 20:22:29 11° SE
Cosmos 1300 3.7 20:17:00 10° N 20:20:09 29° ENE 20:23:03 11° SE
USA 245 3.2 20:18:58 10° SSE 20:22:20 88° WSW 20:26:39 10° NNW
Cosmos 1674 3.9 20:20:04 10° SSW 20:23:19 39° WNW 20:26:37 10° N
Cosmos 2333 Rocket 3.1 20:18:10 10° NNW 20:23:36 41° NE 20:29:02 10° ESE
SL-16 R/B 2.3 20:18:43 10° NNW 20:24:26 79° ENE 20:29:51 11° SSE
Cosmos 1515 Rocket 4.5 20:20:27 10° SSW 20:24:39 50° WNW 20:28:53 10° N
In-Cosmos 22 4.2 20:19:20 10° S 20:24:56 69° E 20:30:25 10° NNE
Cosmos 1908 3.4 20:22:29 10° NNW 20:26:04 66° W 20:29:38 10° S
Cosmos 1470 3.6 20:22:41 10° NNW 20:26:13 44° W 20:29:45 10° SSW
Cosmos 468 Rocket 4.5 20:22:31 10° NNW 20:27:40 58° WSW 20:32:43 10° S
Cosmos 2082 Rocket 3.2 20:23:45 10° SW 20:29:19 52° NW 20:34:54 10° NNE
Atlas Centaur 2 4.2 20:23:38 10° SW 20:29:24 21° S 20:34:35 12° SE
Ariane Rocket 3.0 20:25:09 10° SSE 20:30:14 81° ENE 20:35:21 10° NNW
Cosmos 2228 Rocket 3.8 20:28:12 10° SSE 20:32:19 38° E 20:36:33 10° NNE
SL-14 R/B 3.9 20:29:37 12° SSE 20:32:48 35° E 20:36:17 10° NNE
Meteor 1-12 Rocket 4.5 20:29:54 10° N 20:35:55 69° ENE 20:41:31 12° SSE
RESURS DK-1 2.5 20:31:55 10° NNW 20:36:00 66° ENE 20:39:23 14° SE
Okean O Rocket 4.2 20:33:41 10° SW 20:36:21 16° W 20:39:02 10° NW
Tiangong 0.1 20:37:03 10° SW 20:38:39 13° SSW 20:39:45 12° S
Cosmos 1869 Rocket 3.8 20:36:31 10° NNW 20:40:57 69° W 20:45:22 10° S
Cosmos 1850 Rocket 4.4 20:36:38 10° S 20:41:35 45° ESE 20:46:33 10° NNE
Cosmos 1346 Rocket 3.2 20:39:51 10° N 20:43:36 47° ENE 20:46:26 16° SE
Terra 2.2 20:39:52 10° S 20:44:31 63° WSW 20:49:14 10° NNW
SPOT 3 Rocket 3.6 20:40:43 11° SSE 20:45:42 83° WSW 20:50:54 10° NNW
USA 281 4.0 20:42:10 10° ESE 20:48:14 42° NE 20:54:20 10° NNW
Timation 1 Rocket 4.3 20:44:16 10° SSW 20:50:08 65° ESE 20:56:03 10° NE
EXPRESS MD2 1.8 20:50:53 10° WSW 20:53:33 86° S 20:55:43 10° ENE
Cosmos 2315 Rocket 4.1 20:50:09 10° N 20:56:34 85° E 21:02:15 14° S
Cosmos 1758 3.2 20:54:15 10° N 20:58:11 89° E 21:01:09 17° S
Cosmos 1741 Rocket 4.1 20:55:33 10° S 21:00:43 62° ESE 21:05:59 10° NNE
Landsat 4 4.4 21:00:47 12° S 21:03:41 41° W 21:06:58 10° NNW
Cosmos 968 Rocket 3.8 20:59:28 13° S 21:03:53 48° ESE 21:08:53 10° NNE
Cosmos 2322 Rocket 2.3 21:02:35 10° NNW 21:08:17 78° WSW 21:12:36 18° SSE
Cosmos 1814 Rocket 4.3 21:03:13 10° NNW 21:08:29 60° ENE 21:12:20 18° SE
Cosmos 1356 Rocket 3.4 21:06:07 13° S 21:09:47 81° E 21:14:01 10° NNE
SeaSat 1 3.9 21:07:56 10° SSW 21:12:08 28° WSW 21:16:21 10° NW
Cosmos 1862 Rocket 3.5 21:11:25 16° S 21:14:51 74° E 21:19:18 10° NNE
Meteor 1-21 4.3 21:13:02 12° S 21:18:25 81° E 21:24:16 10° NNE
Okean 2 4.0 21:19:14 23° SSE 21:21:12 39° E 21:24:58 10° NNE
USA 234 3.5 21:15:45 10° NE 21:22:18 73° NNW 21:28:47 10° WSW
BREEZE-M DEB (TANK) 4.3 21:01:48 10° WSW 21:23:11 90° WNW 21:27:58 10° ENE
Cosmos 1400 Rocket 4.2 21:23:09 10° SW 21:26:45 35° WNW 21:30:19 10° N
Cosmos 1455 2.7 21:24:43 10° N 21:28:04 41° ENE 21:29:35 26° SE
SL-4 R/B 2.8 21:25:13 10° WNW 21:29:03 53° N 21:33:09 10° E
COSMOS 2428 3.8 21:23:51 10° NNW 21:29:08 37° NE 21:33:46 13° ESE
COSMOS 2455 4.4 21:29:11 15° ESE 21:30:46 16° ESE 21:34:16 10° ENE
Landsat 5 3.9 21:30:25 10° N 21:34:20 59° WNW 21:38:06 12° SSW
Cosmos 2219 Rocket 2.3 21:29:59 10° NNW 21:35:41 75° ENE 21:39:27 22° SE
Cosmos 1707 Rocket 4.1 21:31:38 12° SSW 21:35:42 58° WNW 21:40:07 10° N
ATLAS CENTAUR R/B 0.9 21:35:35 10° SW 21:39:05 82° NW 21:42:43 10° NE
ARIANE 5 R/B 2.7 21:39:26 26° SSE 21:41:47 68° ENE 21:46:06 10° N
Cosmos 1315 Rocket 2.8 21:39:54 27° S 21:41:56 67° E 21:45:54 10° NNE
SJ 16-02 1.2 21:39:28 20° SSW 21:42:25 79° ESE 21:46:47 10° NNE
Meteor 1-4 Rocket 2.0 21:41:42 33° SSW 21:42:53 83° W 21:45:54 10° N
SL-27 R/B 2.8 21:41:51 18° SW 21:43:40 45° WNW 21:46:22 10° N
Okean 3 3.7 21:41:42 18° SSW 21:44:40 67° WNW 21:48:50 10° N
Cosmos 1953 2.1 21:41:58 10° N 21:45:49 80° E 21:47:31 31° SSE
Cosmos 1241 Rocket 4.4 21:42:42 12° SSW 21:48:22 64° ESE 21:54:32 10° NE
Aureole 3 4.0 21:49:38 18° SSW 21:52:24 55° WNW 21:57:05 10° N
Cosmos 1733 Rocket 4.5 21:52:34 10° NNW 21:56:27 31° W 21:59:30 15° SW
Nadezhda 1 Rocket 4.1 21:51:27 10° N 21:57:45 66° ENE 22:01:33 25° SSE
Cosmos 2360 Rocket 3.0 21:53:55 10° NW 21:59:13 41° WSW 22:02:32 21° SSW
H-2A R/B 2.8 21:59:14 29° SE 22:01:17 61° ENE 22:05:31 10° N
GP-B 3.0 21:57:52 10° N 22:02:18 84° E 22:04:27 30° S
Cosmos 839 Rocket 4.2 21:56:13 10° NW 22:03:04 65° WSW 22:06:44 25° SSE
SL-16 R/B 4.2 22:04:04 10° WNW 22:07:49 18° W 22:11:34 10° SW
ATLAS 2AS CENTAUR R/B 3.1 22:01:21 10° NW 22:07:50 48° WSW 22:11:32 24° S
Cosmos 2333 Rocket 3.1 22:02:34 10° NW 22:07:52 39° WSW 22:11:07 21° SSW
Cosmos 1908 Rocket 3.7 22:04:44 10° NNW 22:09:04 67° W 22:11:05 30° S
Cosmos 1782 Rocket 3.6 22:07:20 10° N 22:11:39 69° ENE 22:13:29 33° SSE
BREEZE-M DEB (TANK) 3.6 22:10:54 10° W 22:13:54 78° N 22:22:29 10° E
Okean 1-7 3.6 22:13:21 20° SSW 22:16:06 51° WNW 22:20:21 10° N
Atlas Centaur 2 4.4 22:12:49 10° SW 22:16:47 15° SSW 22:16:47 15° SSW
Cosmos 1408 2.5 22:22:39 44° ESE 22:22:47 45° E 22:25:41 10° NNE
Cosmos 1242 Rocket 2.2 22:23:20 50° WSW 22:23:43 58° WNW 22:26:28 10° N
BlueWalker 3 2.7 22:24:27 32° ESE 22:24:27 32° ESE 22:27:16 10° ENE
BREEZE-M DEB (TANK) 3.4 22:20:19 10° WNW 22:24:04 35° N 22:26:05 10° ENE
MINOTAUR 4 R/B 4.1 22:22:35 10° N 22:25:26 51° WNW 22:26:10 38° WSW
Cosmos 405 Rocket 4.3 22:25:15 10° NNE 22:28:26 25° ENE 22:29:56 20° ESE
Spot 2 4.5 22:28:05 30° SSE 22:30:37 77° ENE 22:35:42 10° NNW
Cosmos 1570 Rocket 4.1 22:26:36 10° NNW 22:31:56 69° WSW 22:34:28 31° S
Cosmos 1300 Rocket 3.4 22:27:58 10° N 22:32:17 87° W 22:33:55 38° S
USA 281 3.7 22:28:55 25° S 22:32:39 49° WSW 22:39:01 10° NW
Meteor 1-24 Rocket 4.4 22:30:01 26° SE 22:32:45 43° E 22:38:04 10° NNE
Cosmos 2237 Rocket 3.0 22:27:34 10° NNW 22:33:01 45° NE 22:37:15 16° ESE
Cosmos 1238 4.5 22:30:12 10° NNW 22:33:18 66° W 22:34:08 46° SSW
Cosmos 2322 3.7 22:27:41 10° NNW 22:33:21 70° WSW 22:36:10 30° S
H-2A R/B 3.5 22:30:52 10° NE 22:34:19 23° E 22:35:22 21° ESE
ALOS 2 2.6 22:32:43 35° SSE 22:34:31 80° ENE 22:38:56 10° NNW
Cosmos 371 Rocket 3.7 22:38:27 33° SSE 22:40:02 45° ESE 22:44:38 10° NE
Cosmos 2227 Rocket 3.8 22:38:36 16° ESE 22:40:22 19° E 22:44:11 10° ENE
CZ-3 Stage 3 4.4 22:16:34 10° W 22:40:54 30° SW 22:45:18 24° S
CZ-4C R/B 2.4 22:42:24 33° SSE 22:43:29 37° ESE 22:48:28 10° NE
BREEZE-M DEB (TANK) 3.2 22:45:04 47° SE 22:45:04 47° SE 22:49:27 10° ENE
Cosmos 1703 3.3 22:44:41 44° SE 22:45:28 55° E 22:49:06 10° NNE
Cosmos 1980 4.1 22:40:22 10° NNW 22:45:58 58° ENE 22:49:45 21° SE
Cosmos 1709 Rocket 4.0 22:45:06 28° S 22:48:43 85° E 22:55:08 10° N
Spot 4 4.2 22:49:10 32° SSW 22:51:10 53° W 22:55:53 10° NNW
Cosmos 2322 Rocket 4.4 22:48:55 10° WNW 22:51:20 13° W 22:53:46 10° WSW
NOSS 0 Rocket 3.9 22:48:58 10° NNW 22:55:15 84° WSW 22:58:44 28° SSE
Cosmos 158 Rocket 4.2 22:50:47 10° NNW 22:56:01 61° WSW 22:58:13 33° S
Cosmos 2242 Rocket 3.7 22:57:30 34° SSW 22:59:24 75° W 23:04:00 10° N
Sich 1 Rocket 4.4 22:55:12 10° N 22:59:25 43° ENE 23:01:19 27° SE
Cosmos 2297 Rocket 2.6 22:57:55 31° SSE 23:00:11 48° ESE 23:05:35 10° NE
Meteor 2-5 Rocket 3.9 22:57:47 31° S 23:00:45 72° E 23:06:35 10° NNE
EXPRESS MD2 4.2 22:58:51 10° WNW 22:59:34 18° WNW 22:59:34 18° WNW
Cosmos 1455 4.3 23:00:14 10° NW 23:02:08 14° W 23:03:18 12° WSW
Cosmos 2208 Rocket 4.4 22:58:53 10° NNW 23:03:53 49° WSW 23:05:55 32° SSW
GEOS 3 Rocket 4.1 22:59:48 10° NE 23:04:40 40° ESE 23:06:13 32° SSE
USA 234 4.4 22:58:42 10° ENE 23:04:50 44° N 23:10:57 10° WNW
Cosmos 1892 3.6 23:06:43 29° ESE 23:07:17 31° E 23:10:27 10° NNE
SL-4 R/B 2.0 23:04:01 10° WNW 23:08:06 87° NNE 23:12:04 12° ESE
Cosmos 773 Rocket 3.9 23:02:59 10° NNW 23:08:10 86° WSW 23:10:31 33° SSE
COSMOS 2428 3.3 23:08:07 10° NW 23:13:28 43° WSW 23:15:45 29° SSW
CENTAUR R/B 3.5 23:12:45 22° SE 23:14:38 26° ESE 23:19:57 10° ENE
Cosmos 2098 Rocket 4.1 23:08:19 10° N 23:14:57 84° W 23:18:28 30° S
COSMOS 2455 2.8 23:12:16 26° SSW 23:15:47 83° ESE 23:21:52 10° NE
NOSS 8 (H) 4.2 23:15:28 50° SW 23:16:18 89° SE 23:19:22 10° NE
ATLAS CENTAUR R/B 4.0 23:15:11 10° WNW 23:17:20 15° NNW 23:19:31 10° N
Cosmos 1503 Rocket 4.0 23:15:43 33° S 23:18:06 74° ESE 23:23:25 10° NNE
Cosmos 2219 Rocket 3.9 23:15:03 10° NW 23:18:59 20° W 23:21:08 16° SW
Cosmos 1777 Rocket 4.1 23:18:39 34° S 23:20:53 65° ESE 23:26:08 10° NNE
SJ 16-02 3.9 23:18:53 10° W 23:21:22 15° NW 23:23:52 10° NNW
PSLV R/B 3.7 23:27:15 10° N 23:31:28 63° WNW 23:33:06 34° SW
Cosmos 332 Rocket 4.2 23:31:18 34° SSE 23:33:06 52° ESE 23:37:51 10° NNE
Cosmos 304 Rocket 3.8 23:31:07 32° SW 23:33:19 74° WNW 23:38:06 10° NNE
Cosmos 2263 Rocket 3.9 23:33:49 15° SE 23:36:14 20° E 23:40:10 10° NE
Cosmos 1174 4.0 23:32:44 10° NW 23:37:52 85° NE 23:39:54 30° SE
Okean 1 Rocket 3.1 23:36:58 10° N 23:41:19 74° E 23:43:05 35° SSE
Resurs 1-4 Rocket 4.5 23:41:36 10° ENE 23:43:17 11° E 23:44:58 10° ESE
Cosmos 2181 Rocket 4.2 23:40:18 10° NNW 23:46:25 60° W 23:49:33 29° SSW
Cosmos 1825 1.8 23:47:12 56° SSW 23:47:52 88° W 23:51:18 10° N
Helios 1A Rocket 4.1 23:46:37 19° ESE 23:48:49 34° ENE 23:52:18 10° N
